{"data":{"norad_id":56398,"intl_designator":"2023-061AA","name":"STARLINK-6288","alt_names":[],"object_type":"PAYLOAD","status":"ACTIVE","operator":null,"country":"US","launch_date":"2023-05-04","launch_site_code":"AFETR","launch_vehicle":null,"mission":null,"orbit_class":"UNKNOWN","rcs_meters":null,"size_class":null,"mass_kg":null,"dimensions":null,"purposes":["comms"],"wikipedia_slug":null,"has_3d_model":false,"image_url":null,"decayed_at":null,"tle_current":{"epoch":"2026-09-20T11:01:53.514624Z","epoch_age_seconds":115498,"freshness":"FRESH","line1":"1 56398U 23061AA  26263.45964716  .00001147  00000+0  51196-4 0  9992","line2":"2 56398  43.0033 166.9539 0001416 268.3513  91.7176 15.27578976186660","mean_motion":15.27578976,"eccentricity":0.0001416,"inclination_deg":43.0033,"raan_deg":166.9539,"arg_perigee_deg":268.3513,"mean_anomaly_deg":91.7176,"bstar":5.1196e-5,"rev_number":18666,"period_min":94.266811904591,"perigee_km":482.08061788037,"apogee_km":484.02370665113,"semimajor_km":6861.1891622657,"source":"CELESTRAK","updated_at":"2026-09-21T09:00:33.434850Z"}}}